Regional Weather Roundup
Issued by NWS

Home | Current Version | Previous Version | Graphics & Text | Print | Product List | Glossary On
Versions: 1 2 3 4 5 6 7 8 9 10 11 12 13 14 15 16 17 18 19 20 21 22 23 24 25 26 27 28 29 30 31 32 33 34 35 36 37 38 39 40 41 42 43 44 45 46 47 48 49 50
000
ASUS45 KPSR 212200
RWRAZ

PRELIMINARY ARIZONA REGIONAL HOURLY WEATHER ROUNDUP
NATIONAL WEATHER SERVICE PHOENIX AZ
300 PM MST THU AUG 21 2014

NOTE: FAIR INDICATES FEW OR NO CLOUDS BELOW 12,000 FEET WITH NO
SIGNIFICANT WEATHER AND/OR OBSTRUCTIONS TO VISIBILITY.

AZZ001>003-036-212300-
NORTHWEST ARIZONA

CITY           SKY/WX    TMP DP  RH WIND       PRES   REMARKS
KINGMAN        LGT RAIN  64  58  80 SE10      30.10F
$$

AZZ004>008-015-016-018-212300-
NORTH CENTRAL ARIZONA

CITY           SKY/WX    TMP DP  RH WIND       PRES   REMARKS
GRAND CANYON   LGT RAIN  57  52  83 S13G23    30.30R
WILLIAMS       CLOUDY    54  50  87 CALM      30.37R
PRESCOTT       LGT RAIN  63  56  78 S6        30.18F
FLAGSTAFF      TSTM      56  53  90 W5        30.30R
PAYSON         CLOUDY    73  55  53 VRB7G16   30.18F
PAGE           PTSUNNY   85  44  23 VRB6      30.06F
$$

AZZ009>014-017-212300-
NORTHEAST ARIZONA

CITY           SKY/WX    TMP DP  RH WIND       PRES   REMARKS
WINSLOW        NOT AVBL
SAINT JOHNS    LGT RAIN  75  47  36 SW16G22   30.15R
WINDOW ROCK    CLOUDY    75  42  30 E9G21     30.23F
$$

AZZ023-212300-
GREATER PHOENIX AREA

CITY           SKY/WX    TMP DP  RH WIND       PRES   REMARKS
PHOENIX        PTSUNNY   86  57  37 VRB7      29.91F
GLENDALE       PTSUNNY   88  61  40 NE7       29.92F
DEER VALLEY    PTSUNNY   84  59  42 NE6       29.92F
SCOTTSDALE     LGT RAIN  84  60  44 N5        29.95F
MESA-GATEWAY   PTSUNNY   86  54  32 N6        29.95F
CHANDLER       PTSUNNY   86  57  37 NW9       29.94F
$$

AZZ027-028-212300-
SOUTHWEST MARICOPA COUNTY AND PINAL COUNTY

CITY           SKY/WX    TMP DP  RH WIND       PRES   REMARKS
CASA GRANDE    CLOUDY    86  55  35 CALM      29.95F
GILA BEND      MOCLDY    93  54  26 E14G20    29.88F
$$

AZZ503-504-507>509-212300-
SOUTHEAST ARIZONA

CITY           SKY/WX    TMP DP  RH WIND       PRES   REMARKS
TUCSON         CLOUDY    84  60  44 NW7       30.02F
RYAN FIELD       N/A     82  64  54 S10G26    30.02S
NOGALES        CLOUDY    77  61  57 W3        30.08F
SIERRA VISTA   LGT RAIN  68  61  77 W12       30.15S
SAFFORD        CLOUDY    85  57  38 NW16      29.98F
$$

AZZ020-021-025-026-031-212300-
SOUTHWEST ARIZONA

CITY           SKY/WX    TMP DP  RH WIND       PRES   REMARKS
YUMA           HAZE      91  57  31 W23G35    29.83R THUNDER VSB 1/4
$$

CAZ031-033-041-043-047-048-061-212300-
SOUTHERN CALIFORNIA

CITY           SKY/WX    TMP DP  RH WIND       PRES   REMARKS
DOWNTOWN L.A.  SUNNY     77  62  59 VRB3      29.90F
L.A. AIRPORT   MOSUNNY   74  61  63 W14       29.92F
SAN DIEGO      MOSUNNY   77  63  61 W15       29.91F
BURBANK        SUNNY     83  58  42 S9        29.90F
ONTARIO        MOSUNNY   91  57  31 SW9       29.89F
RIVERSIDE      SUNNY     91  59  33 VRB7      29.89F
PALM SPRINGS   LGT RAIN  92  51  24 S8        29.84F
EL CENTRO NAS  LGT RAIN  73  64  73 E25G31    29.85S
IMPERIAL       LGT RAIN  73  64  73 E15G24    29.87F
BLYTHE         CLOUDY    86  64  47 SE20      29.82S THUNDER
$$

NVZ020-UTZ003-212300-
SOUTHERN NEVADA-UTAH

CITY           SKY/WX    TMP DP  RH WIND       PRES   REMARKS
LAS VEGAS      NOT AVBL
SALT LAKE CITY PTSUNNY   82  43  25 SE8       30.03F
$$

NMZ009-TXZ055-212300-
NEW MEXICO-WEST TEXAS

CITY           SKY/WX    TMP DP  RH WIND       PRES   REMARKS
ALBUQUERQUE    PTSUNNY   86  36  16 SW12      30.10F
EL PASO        MOSUNNY   92  49  22 VRB5      30.01F
$$


........................KEY........................
SKY/WX - SKY CONDITION/WEATHER
TMP    - TEMPERATURE IN FAHRENHEIT
DP     - DEW POINT IN FAHRENHEIT
RH     - RELATIVE HUMIDITY IN PERCENT
WIND   - DIRECTION AND SPEED IN MILES PER HOUR (MPH)
VRB    - VARIABLE WIND DIRECTION
PRES   - MEAN SEA LEVEL PRESSURE IN INCHES OF MERCURY
         F - FALLING PRESSURE   R - RISING PRESSURE
         S - STEADY PRESSURE
VSB    - VISIBILITY IN MILES
HX     - HEAT INDEX IN FAHRENHEIT
WCI    - WIND CHILL INDEX IN FAHRENHEIT
TC     - TEMPERATURE IN CELSIUS WHICH IS ALSO KNOWN AS
         TEMPERATURE IN CENTIGRADE
AFB    - AIR FORCE BASE
         LUKE AFB IS LUKE AIR FORCE BASE
         DAVIS-MONTHAN IS DAVIS-MONTHAN AIR FORCE BASE
NAS    - NAVAL AIR STATION
         EL CENTRO NAS IS EL CENTRO NAVAL AIR STATION
N/A    - NOT AVAILABLE



USA.gov is the U.S. government's official web portal to all federal, state and local government web resources and services.